GFSNW_prec_snow_111.txt.gz
Snowfall_Accumulation
0.0 0.0 0.0 0.0 0.0 0.0 0.0 0.0 11.5 0.0 0.0 7.6 4.3 2.7 0.1 0.0 0.2 0.0 1.6 2.4 4.2 6.6 4.8 5.2 6.0 2.9 2.0 0.0 0.0 0.0 0.0 4.0 1.9 0.5 0.0 0.0 0.0 0.0 0.0 5.2 2.6 2.1 4.4 9.4
0.0 0.0 0.0 0.0 0.0 0.0 0.0 2.2 0.1 0.0 0.0 5.6 3.2 1.0 0.1 0.0 0.0 0.0 1.4 2.0 4.3 6.1 7.8 9.2 11.0 3.5 0.0 0.0 0.0 0.0 0.0 1.2 0.9 2.5 0.0 0.0 0.0 0.0 0.0 0.6 0.2 5.3 4.8 7.5
0.0 0.0 0.0 0.0 0.0 0.0 0.0 9.7 15.1 0.0 0.0 2.3 1.4 1.4 0.4 0.1 0.0 0.0 0.1 2.9 5.7 6.2 7.4 6.9 9.2 3.4 0.0 0.0 0.0 0.0 0.0 0.0 0.7 3.5 4.5 2.3 1.7 1.1 0.0 1.3 3.5 1.9 3.2 3.0
0.0 0.0 0.0 0.0 0.0 0.0 0.0 15.5 12.6 0.3 8.2 3.1 1.5 1.4 2.0 1.0 1.1 0.2 1.0 4.7 3.9 4.4 6.6 4.5 5.1 4.6 0.1 0.0 0.0 0.0 0.0 0.2 2.5 0.7 0.0 0.7 1.9 1.3 1.8 3.3 0.0 3.3 2.4 0.8
0.0 0.0 0.0 0.0 0.0 0.0 0.0 32.7 3.8 0.0 1.2 0.8 2.8 3.3 1.0 0.4 1.1 3.7 2.5 0.7 0.5 1.0 1.1 2.5 2.7 3.1 1.8 1.6 0.0 0.0 0.0 1.2 2.0 5.4 1.6 0.1 1.6 0.8 0.0 0.0 0.0 1.1 0.8 1.5
0.0 0.0 0.0 0.0 0.0 0.0 0.0 0.0 0.0 0.8 0.8 0.2 3.4 4.4 2.1 1.1 1.0 0.5 0.3 0.0 0.1 0.1 0.0 0.0 0.0 0.0 0.0 0.0 0.2 0.3 0.0 0.1 0.3 1.5 0.5 0.0 0.7 0.0 0.0 0.0 0.0 0.1 0.7 0.5
0.0 0.0 0.0 0.0 0.0 0.0 0.0 0.0 0.0 4.2 5.9 1.3 0.3 0.2 0.0 0.1 0.0 0.0 0.0 0.0 0.1 0.0 0.0 0.0 0.0 0.0 0.0 0.0 0.0 0.0 0.0 0.0 0.0 0.0 0.2 2.8 2.8 0.0 0.0 0.0 0.0 0.0 0.0 0.0
0.0 0.0 0.0 0.0 0.0 0.0 0.0 0.0 0.0 1.1 3.8 0.8 0.3 0.0 0.4 0.0 0.0 0.0 0.0 0.0 0.0 0.0 0.0 0.6 0.2 0.1 0.0 0.0 0.0 0.0 0.0 0.0 1.8 0.7 0.3 0.9 0.2 0.0 0.0 0.3 0.4 0.0 0.0 0.0
0.0 0.0 0.0 0.0 0.0 0.0 0.0 0.0 0.0 0.0 4.2 1.1 0.0 0.0 0.0 0.2 1.2 0.5 0.0 0.0 0.0 0.0 1.8 1.6 1.2 0.8 0.3 0.3 0.1 0.0 0.0 0.0 0.2 2.1 1.2 1.5 0.2 0.0 0.0 0.0 0.8 0.1 0.0 0.0
0.0 0.0 0.0 0.0 0.0 0.0 0.0 0.0 0.0 0.1 9.6 0.0 0.0 0.0 0.5 0.0 0.3 2.3 0.0 0.3 0.0 0.0 2.4 2.2 0.7 0.8 0.0 1.3 2.1 0.8 1.1 0.4 0.9 2.2 2.2 0.0 0.0 0.0 0.0 0.8 1.7 0.3 0.1 0.0
0.0 0.0 0.0 0.0 0.0 0.0 0.0 0.0 0.0 0.0 9.7 0.0 0.0 0.0 0.0 0.0 0.4 2.4 0.0 4.0 3.3 2.0 2.1 1.2 0.8 1.1 0.6 1.0 0.2 0.9 0.5 2.2 0.9 2.8 3.1 1.2 0.0 0.0 0.0 0.7 0.5 0.4 0.3 0.1
0.0 0.0 0.0 0.0 0.0 0.0 0.0 0.0 0.0 0.0 0.2 0.0 0.0 0.0 0.0 0.0 0.0 0.0 0.0 0.0 0.9 0.8 2.9 1.4 1.2 0.6 1.4 0.2 3.1 0.0 3.4 0.8 0.9 0.0 1.4 1.2 0.4 0.3 0.4 0.1 0.5 0.7 0.4 0.9
0.0 0.0 0.0 0.0 0.0 0.0 0.0 0.0 0.0 0.0 6.2 0.0 0.0 0.0 0.0 0.0 0.0 0.0 0.8 0.0 0.0 1.6 0.0 2.9 2.1 2.7 0.1 1.1 0.8 2.3 2.4 0.0 2.7 2.0 3.6 1.5 0.8 0.7 0.4 0.4 0.7 1.0 1.1 0.7
0.0 0.0 0.0 0.0 0.0 0.0 0.0 0.0 0.0 0.0 0.3 7.0 0.4 0.0 0.0 0.0 0.0 0.0 0.0 0.0 0.0 0.0 0.0 1.4 0.5 1.7 0.0 0.8 2.1 2.2 1.7 2.2 6.2 6.2 4.1 1.8 1.2 1.5 1.3 1.3 0.9 0.3 1.5 1.3
0.0 0.0 0.0 0.0 0.0 0.0 0.0 0.0 0.0 0.0 0.0 3.1 1.5 0.0 0.0 0.0 0.0 0.0 0.0 0.0 0.0 0.0 1.6 1.8 1.9 0.0 0.1 0.1 2.2 2.4 1.1 3.6 6.8 11.8 9.4 5.7 5.0 2.8 1.8 1.8 2.1 1.2 0.5 0.0
0.0 0.0 0.0 0.0 0.0 0.0 0.0 25.6 0.0 0.0 0.0 5.1 4.1 0.0 0.0 0.0 0.0 0.0 0.0 0.0 0.0 0.0 0.4 1.6 0.0 0.0 0.1 5.2 6.1 2.4 1.3 1.4 2.8 5.5 7.9 7.6 4.8 3.5 2.3 1.5 0.7 0.0 0.0 0.0
0.0 0.0 0.0 0.0 0.0 0.0 0.0 5.8 0.0 0.0 0.0 6.0 8.0 1.5 0.0 0.0 0.0 0.0 0.0 0.0 0.0 0.0 0.0 0.4 0.4 0.0 0.1 5.6 7.8 3.6 2.6 2.6 3.1 3.2 3.6 2.7 1.7 1.1 0.5 0.0 0.0 0.0 0.0 0.0
0.0 0.0 0.0 0.0 0.0 0.0 0.0 0.0 0.0 0.0 0.0 0.7 7.4 7.1 3.0 0.0 0.0 2.0 0.0 0.0 0.0 0.0 0.1 0.8 0.2 0.9 0.6 5.0 0.4 0.0 0.4 0.5 1.2 1.3 0.4 0.9 0.5 0.0 0.0 0.0 0.0 0.0 0.0 0.3
0.0 0.0 0.0 0.0 0.0 1.2 0.0 0.0 0.0 0.0 0.0 4.7 3.1 6.7 12.6 0.0 0.0 0.0 1.8 0.0 6.3 0.0 3.0 1.6 1.0 2.4 7.2 4.4 0.6 0.0 0.0 0.0 0.0 0.0 0.1 0.0 0.2 0.0 0.0 0.0 0.0 0.4 2.7 1.8
0.0 0.0 0.3 39.2 3.0 0.0 0.0 0.0 5.3 5.4 2.6 1.8 2.7 0.9 4.7 0.0 0.6 1.8 1.2 1.1 3.0 4.4 1.6 0.0 3.6 6.6 4.5 1.3 0.3 0.0 0.0 0.0 0.0 0.0 0.0 0.0 0.3 0.4 0.3 1.2 1.9 2.7 2.3 1.0
0.0 14.1 15.6 0.0 0.0 0.0 2.1 19.0 11.3 6.3 3.9 0.6 0.6 0.0 7.6 3.5 7.5 2.3 0.2 4.7 3.2 4.7 2.0 4.3 5.6 3.9 3.1 1.7 0.9 0.2 0.0 0.0 0.0 0.0 0.0 0.1 0.4 1.3 3.0 2.0 0.1 0.0 0.8 1.0
0.0 0.0 0.0 0.0 6.6 9.5 16.5 13.4 7.3 3.1 3.5 1.1 1.5 1.6 1.1 8.5 1.8 6.8 8.8 9.2 6.3 4.6 3.5 4.8 6.6 4.5 0.7 0.1 0.2 0.2 0.1 0.0 0.1 0.3 0.4 0.4 1.3 0.6 1.5 1.3 1.4 1.5 1.4 2.0
0.0 2.7 9.6 17.3 21.9 23.0 15.3 9.1 5.2 3.0 3.8 1.3 1.5 2.3 1.4 3.5 5.0 14.6 8.1 7.9 13.2 3.9 10.0 8.3 5.4 3.0 1.3 1.4 0.3 0.2 0.2 0.2 0.2 0.4 0.3 0.4 0.7 0.7 0.6 1.0 1.4 1.6 2.8 3.9
6.7 19.7 20.1 20.6 16.0 10.5 9.1 4.7 2.9 2.8 2.3 1.4 3.4 1.6 2.3 2.5 8.9 14.4 14.0 14.4 11.3 14.6 8.5 6.2 5.9 6.5 6.1 4.0 3.1 2.1 3.4 2.2 2.2 2.3 2.4 2.6 3.9 3.7 5.4 6.2 7.2 6.7 8.7 11.2
12.4 12.0 12.2 10.4 11.5 9.2 7.5 6.2 4.3 2.6 2.8 2.1 3.5 3.4 4.6 8.0 12.3 10.0 8.6 8.3 7.8 6.3 7.0 6.7 6.5 6.9 5.5 4.5 4.9 5.2 5.6 5.4 5.9 6.1 6.1 7.1 7.3 6.6 8.4 9.4 9.3 7.8 7.8 7.9
6.5 6.4 8.4 7.7 6.3 7.7 6.4 6.2 7.0 4.1 5.4 4.7 5.3 6.6 7.5 8.1 6.7 4.0 5.2 4.4 6.1 7.3 5.8 4.4 4.5 5.0 5.5 6.0 6.0 6.8 7.0 6.5 6.2 6.3 5.8 6.0 6.2 5.6 6.3 6.7 6.4 6.6 5.4 5.4
4.7 8.3 8.3 7.4 6.4 7.8 7.7 6.8 5.5 3.8 3.6 6.0 5.0 4.2 4.8 3.0 2.8 4.8 5.1 6.5 6.6 5.4 6.3 6.8 6.3 6.5 7.4 7.3 7.8 8.1 7.7 6.7 6.3 6.0 5.8 6.0 5.9 4.4 2.9 3.9 5.6 4.4 4.2 3.7

GFSNW_prec_snow_114.txt.gz
Snowfall_Accumulation
0.0 0.0 0.0 0.0 0.0 0.0 0.0 0.0 11.5 0.0 0.0 7.6 4.3 2.7 0.1 0.0 0.2 0.0 1.6 2.4 4.2 6.6 4.8 5.2 6.0 3.0 3.4 0.0 0.0 0.0 0.0 5.8 5.1 1.5 0.0 0.0 0.0 0.0 0.0 5.2 2.6 2.1 8.3 12.8
0.0 0.0 0.0 0.0 0.0 0.0 0.0 2.2 0.1 0.0 0.0 5.6 3.2 1.0 0.1 0.0 0.0 0.0 1.4 2.0 4.4 6.1 7.8 9.2 11.0 3.5 0.0 0.0 0.0 0.0 0.0 4.0 1.9 3.1 0.0 0.0 0.0 0.0 0.0 0.6 2.0 7.8 9.2 10.9
0.0 0.0 0.0 0.0 0.0 0.0 0.0 9.7 15.1 0.0 0.0 2.3 1.4 1.4 0.4 0.1 0.0 0.0 0.1 2.9 5.7 6.2 7.4 6.9 9.2 3.4 0.0 0.0 0.0 0.0 0.0 0.0 0.8 3.5 5.4 2.3 2.0 1.1 0.0 1.8 5.5 4.3 6.5 5.8
0.0 0.0 0.0 0.0 0.0 0.0 0.0 15.5 12.6 0.3 8.2 3.1 1.5 1.4 2.0 1.0 1.1 0.2 1.0 4.7 3.9 4.4 6.6 4.5 5.1 4.6 0.1 0.0 0.0 0.0 0.0 0.2 3.1 0.7 1.3 1.5 4.2 3.8 4.5 5.6 2.0 4.7 4.9 1.9
0.0 0.0 0.0 0.0 0.0 0.0 0.0 32.7 3.8 0.0 1.2 0.8 2.8 3.3 1.0 0.4 1.1 3.7 2.5 0.7 0.5 1.0 1.1 2.5 2.7 3.1 1.8 1.6 0.0 0.0 0.0 1.3 3.9 9.1 4.4 1.0 3.3 2.1 1.4 1.5 1.5 2.3 1.2 1.9
0.0 0.0 0.0 0.0 0.0 0.0 0.0 0.0 0.0 0.8 0.8 0.2 3.4 4.4 2.1 1.1 1.0 0.5 0.3 0.0 0.1 0.1 0.0 0.0 0.0 0.0 0.0 0.0 0.2 0.3 0.0 0.1 0.8 2.7 3.0 0.6 2.2 1.2 0.3 0.4 0.5 0.4 1.0 1.1
0.0 0.0 0.0 0.0 0.0 0.0 0.0 0.0 0.0 4.2 5.9 1.3 0.3 0.2 0.0 0.1 0.0 0.0 0.0 0.0 0.1 0.0 0.0 0.0 0.0 0.0 0.0 0.0 0.0 0.0 0.0 0.0 0.0 0.6 0.5 3.5 5.0 0.6 0.1 0.1 0.2 0.1 0.2 0.4
0.0 0.0 0.0 0.0 0.0 0.0 0.0 0.0 0.0 1.1 3.8 0.8 0.3 0.0 0.4 0.0 0.0 0.0 0.0 0.0 0.0 0.0 0.0 0.6 0.2 0.1 0.0 0.0 0.0 0.0 0.0 0.0 1.8 1.2 0.3 2.0 0.2 0.0 0.1 0.3 0.6 0.2 0.2 0.2
0.0 0.0 0.0 0.0 0.0 0.0 0.0 0.0 0.0 0.0 4.2 1.1 0.0 0.0 0.0 0.2 1.2 0.5 0.0 0.0 0.0 0.0 1.8 1.6 1.2 0.8 0.3 0.3 0.1 0.0 0.0 0.0 0.2 2.2 1.2 1.7 0.2 0.0 0.0 0.0 1.0 0.3 0.1 0.1
0.0 0.0 0.0 0.0 0.0 0.0 0.0 0.0 0.0 0.1 9.6 0.0 0.0 0.0 0.5 0.0 0.3 2.3 0.0 0.3 0.0 0.0 2.4 2.2 0.7 0.8 0.0 1.7 2.1 0.8 1.1 0.4 0.9 2.2 2.2 0.0 0.0 0.0 0.0 0.8 2.1 0.5 0.1 0.0
0.0 0.0 0.0 0.0 0.0 0.0 0.0 0.0 0.0 0.0 9.7 0.0 0.0 0.0 0.0 0.0 0.4 2.4 0.0 4.0 3.3 2.0 2.1 1.2 0.8 1.1 0.6 1.0 0.2 0.9 0.5 2.2 0.9 2.8 3.1 1.2 0.0 0.0 0.0 1.1 0.8 0.5 0.4 0.1
0.0 0.0 0.0 0.0 0.0 0.0 0.0 0.0 0.0 0.0 0.2 0.0 0.0 0.0 0.0 0.0 0.0 0.0 0.0 0.0 0.9 0.8 2.9 1.4 1.2 0.6 1.4 0.2 3.1 0.0 3.4 0.8 0.9 0.1 1.4 1.4 0.5 0.5 0.6 0.1 0.5 0.7 0.4 0.9
0.0 0.0 0.0 0.0 0.0 0.0 0.0 0.0 0.0 0.0 6.2 0.0 0.0 0.0 0.0 0.0 0.0 0.0 0.8 0.0 0.0 1.6 0.0 2.9 2.1 2.7 0.1 1.1 0.9 2.3 2.5 0.0 2.7 2.0 3.8 1.6 0.8 0.7 0.4 0.4 0.7 1.0 1.1 0.7
0.0 0.0 0.0 0.0 0.0 0.0 0.0 0.0 0.0 0.0 0.3 7.0 0.4 0.0 0.0 0.0 0.0 0.0 0.0 0.0 0.0 0.0 0.0 1.4 0.5 1.7 0.0 0.8 2.1 2.2 1.7 2.2 6.2 6.3 4.2 1.9 1.2 1.5 1.3 1.3 0.9 0.3 1.5 1.3
0.0 0.0 0.0 0.0 0.0 0.0 0.0 0.0 0.0 0.0 0.0 3.1 1.5 0.0 0.0 0.0 0.0 0.0 0.0 0.0 0.0 0.0 1.6 1.8 1.9 0.0 0.1 0.1 2.2 2.4 1.1 3.6 6.8 11.8 9.4 5.7 5.0 2.8 1.8 1.8 2.1 1.2 0.5 0.0
0.0 0.0 0.0 0.0 0.0 0.0 0.0 25.6 0.0 0.0 0.0 5.1 4.1 0.0 0.0 0.0 0.0 0.0 0.0 0.0 0.0 0.0 0.4 1.6 0.0 0.0 0.1 5.2 6.1 2.4 1.3 1.4 2.8 5.5 7.9 7.6 4.8 3.5 2.3 1.5 0.7 0.0 0.0 0.0
0.0 0.0 0.0 0.0 0.0 0.0 0.0 5.8 0.0 0.0 0.0 6.0 8.0 1.5 0.0 0.0 0.0 0.0 0.0 0.0 0.0 0.0 0.0 0.4 0.4 0.0 0.1 5.6 7.8 3.6 2.6 2.6 3.1 3.2 3.6 2.7 1.7 1.1 0.5 0.0 0.0 0.0 0.0 0.0
0.0 0.0 0.0 0.0 0.0 0.0 0.0 0.0 0.0 0.0 0.0 0.7 7.4 7.1 3.0 0.0 0.0 2.0 0.0 0.0 0.0 0.0 0.1 0.8 0.2 0.9 0.6 5.0 0.4 0.0 0.4 0.5 1.2 1.3 0.4 0.9 0.5 0.0 0.0 0.0 0.0 0.0 0.0 0.3
0.0 0.0 0.0 0.0 0.0 1.2 0.0 0.0 0.0 0.0 0.0 4.7 3.1 6.7 12.6 0.0 0.0 0.0 1.8 0.0 6.3 0.0 3.0 1.6 1.0 2.4 7.2 4.4 0.6 0.0 0.0 0.0 0.0 0.0 0.1 0.0 0.2 0.0 0.0 0.0 0.0 0.4 2.7 1.8
0.0 0.0 0.3 39.2 3.0 0.0 0.0 0.0 5.3 5.4 2.6 1.8 2.7 0.9 4.7 0.0 0.6 1.8 1.2 1.1 3.0 4.4 1.6 0.0 3.6 6.6 4.5 1.3 0.3 0.0 0.0 0.0 0.0 0.0 0.0 0.0 0.3 0.4 0.3 1.2 1.9 2.7 2.3 1.0
0.0 14.1 15.6 0.0 0.0 0.0 2.1 19.3 11.5 6.5 3.9 0.6 0.6 0.0 7.6 3.5 7.5 2.3 0.2 4.7 3.2 4.7 2.0 4.3 5.6 3.9 3.1 1.7 0.9 0.2 0.0 0.0 0.0 0.0 0.0 0.1 0.4 1.3 3.0 2.0 0.1 0.0 0.8 1.0
0.0 0.0 0.0 0.0 6.6 9.7 17.1 13.7 7.3 3.1 3.5 1.1 1.5 1.6 1.1 8.5 1.8 6.8 8.8 9.2 6.3 4.6 3.5 4.8 6.6 4.5 0.7 0.1 0.2 0.2 0.1 0.0 0.1 0.3 0.4 0.4 1.3 0.6 1.5 1.3 1.4 1.5 1.4 2.0
0.0 3.2 9.6 17.3 21.9 23.2 15.5 9.4 5.2 3.0 3.8 1.3 1.5 2.3 1.4 3.5 5.0 14.6 8.1 7.9 13.2 3.9 10.0 8.3 5.4 3.0 1.3 1.4 0.3 0.2 0.2 0.2 0.2 0.4 0.3 0.4 0.7 0.7 0.6 1.0 1.4 1.6 2.8 3.9
6.7 19.8 20.3 20.6 16.0 10.5 9.1 4.7 2.9 2.8 2.3 1.4 3.4 1.6 2.3 2.5 8.9 14.4 14.0 14.4 11.3 14.6 8.5 6.2 5.9 6.5 6.1 4.0 3.1 2.1 3.4 2.2 2.2 2.3 2.4 2.6 3.9 3.7 5.4 6.2 7.2 6.7 8.7 11.2
12.4 12.0 12.2 10.4 11.5 9.2 7.5 6.2 4.3 2.6 2.8 2.1 3.5 3.4 4.6 8.0 12.3 10.0 8.6 8.3 7.9 6.3 7.0 6.7 6.5 6.9 5.5 4.5 4.9 5.2 5.6 5.4 5.9 6.1 6.1 7.1 7.3 6.6 8.4 9.4 9.3 7.8 7.8 7.9
6.5 6.4 8.8 7.9 6.3 7.7 6.4 6.2 7.0 4.1 5.4 4.7 5.3 6.6 7.5 8.1 6.7 4.0 5.2 4.4 6.1 7.3 5.8 4.4 4.5 5.0 5.5 6.0 6.0 6.8 7.0 6.5 6.2 6.3 5.8 6.0 6.2 5.6 6.3 6.7 6.4 6.6 5.4 5.4
4.7 8.3 8.6 7.8 6.5 7.8 7.7 6.8 5.5 3.8 3.6 6.0 5.0 4.2 4.8 3.0 2.8 4.8 5.1 6.5 6.6 5.4 6.3 6.8 6.3 6.5 7.4 7.3 7.8 8.1 7.7 6.7 6.3 6.0 5.8 6.0 5.9 4.4 2.9 3.9 5.6 4.4 4.2 3.7

GFSNW_prec_snow_117.txt.gz
Snowfall_Accumulation
0.0 0.0 0.0 0.0 0.0 0.0 0.0 0.0 11.5 0.0 0.0 7.6 4.3 2.7 0.1 0.0 0.2 0.0 1.6 2.4 4.2 6.6 4.8 5.2 6.0 3.0 3.4 0.0 0.0 0.0 0.0 6.5 6.0 1.5 0.0 0.0 0.0 0.0 0.0 5.2 2.6 2.3 8.3 14.1
0.0 0.0 0.0 0.0 0.0 0.0 0.0 2.2 0.1 0.0 0.0 5.6 3.2 1.0 0.1 0.0 0.0 0.0 1.4 2.0 4.4 6.1 7.8 9.2 11.0 3.5 0.0 0.0 0.0 0.0 0.0 4.9 1.9 3.1 0.0 0.0 0.3 0.0 0.0 0.6 2.0 7.8 11.9 12.4
0.0 0.0 0.0 0.0 0.0 0.0 0.0 9.7 15.1 0.0 0.0 2.3 1.4 1.4 0.4 0.1 0.0 0.0 0.1 2.9 5.7 6.2 7.4 6.9 9.2 3.4 0.0 0.0 0.0 0.0 0.0 0.2 1.6 3.9 6.3 3.5 2.6 1.1 0.0 1.8 6.7 6.2 7.9 7.2
0.0 0.0 0.0 0.0 0.0 0.0 0.0 15.5 12.6 0.3 8.2 3.1 1.5 1.4 2.0 1.0 1.1 0.2 1.0 4.7 3.9 4.4 6.6 4.5 5.1 4.6 0.1 0.0 0.0 0.0 0.0 1.1 4.8 2.6 3.4 2.0 4.8 3.8 6.6 6.5 2.8 5.7 6.3 2.9
0.0 0.0 0.0 0.0 0.0 0.0 0.0 32.7 3.8 0.0 1.2 0.8 2.8 3.3 1.0 0.4 1.1 3.7 2.5 0.7 0.5 1.0 1.1 2.5 2.7 3.1 1.8 1.6 0.0 0.0 0.0 1.9 5.5 12.0 6.2 1.5 5.4 6.0 4.1 2.8 2.4 3.1 1.2 2.3
0.0 0.0 0.0 0.0 0.0 0.0 0.0 0.0 0.0 0.8 0.8 0.2 3.4 4.4 2.1 1.1 1.0 0.5 0.3 0.0 0.1 0.1 0.0 0.0 0.0 0.0 0.0 0.0 0.2 0.3 0.0 0.1 0.8 3.7 3.7 0.6 3.3 3.7 1.5 1.2 1.2 0.7 1.0 1.1
0.0 0.0 0.0 0.0 0.0 0.0 0.0 0.0 0.0 4.2 5.9 1.3 0.3 0.2 0.0 0.1 0.0 0.0 0.0 0.0 0.1 0.0 0.0 0.0 0.0 0.0 0.0 0.0 0.0 0.0 0.0 0.0 0.0 0.9 0.6 3.9 6.8 1.6 0.4 0.2 0.6 0.5 0.2 0.9
0.0 0.0 0.0 0.0 0.0 0.0 0.0 0.0 0.0 1.1 3.8 0.8 0.3 0.0 0.4 0.0 0.0 0.0 0.0 0.0 0.0 0.0 0.0 0.6 0.2 0.1 0.0 0.0 0.0 0.0 0.0 0.0 1.9 1.2 0.5 2.6 0.9 0.3 0.2 0.3 0.9 0.6 0.5 0.6
0.0 0.0 0.0 0.0 0.0 0.0 0.0 0.0 0.0 0.0 4.2 1.1 0.0 0.0 0.0 0.2 1.2 0.5 0.0 0.0 0.0 0.0 1.8 1.6 1.2 0.8 0.3 0.3 0.1 0.0 0.0 0.0 0.2 2.5 1.2 1.9 0.4 0.0 0.0 0.0 1.2 0.5 0.3 0.3
0.0 0.0 0.0 0.0 0.0 0.0 0.0 0.0 0.0 0.1 9.6 0.0 0.0 0.0 0.5 0.0 0.3 2.3 0.0 0.3 0.0 0.0 2.4 2.2 0.7 0.8 0.0 1.7 2.1 0.8 1.1 0.4 1.0 2.2 2.2 0.0 0.0 0.2 0.1 0.9 2.1 0.8 0.1 0.0
0.0 0.0 0.0 0.0 0.0 0.0 0.0 0.0 0.0 0.0 9.7 0.0 0.0 0.0 0.0 0.0 0.4 2.4 0.0 4.0 3.3 2.0 2.1 1.2 0.8 1.1 0.6 1.2 0.2 0.9 0.5 2.2 0.9 2.8 3.1 1.2 0.0 0.0 0.0 1.2 0.9 0.6 0.5 0.1
0.0 0.0 0.0 0.0 0.0 0.0 0.0 0.0 0.0 0.0 0.2 0.0 0.0 0.0 0.0 0.0 0.0 0.0 0.0 0.0 0.9 0.8 2.9 1.4 1.2 0.6 1.4 0.2 3.1 0.0 3.4 0.8 0.9 0.1 1.5 1.6 0.6 0.6 0.7 0.1 0.5 0.7 0.4 0.9
0.0 0.0 0.0 0.0 0.0 0.0 0.0 0.0 0.0 0.0 6.2 0.0 0.0 0.0 0.0 0.0 0.0 0.0 0.8 0.0 0.0 1.6 0.0 2.9 2.1 2.7 0.1 1.1 0.9 2.3 2.5 0.0 2.7 2.0 4.1 1.7 0.9 0.7 0.4 0.4 0.7 1.0 1.1 0.7
0.0 0.0 0.0 0.0 0.0 0.0 0.0 0.0 0.0 0.0 0.3 7.0 0.4 0.0 0.0 0.0 0.0 0.0 0.0 0.0 0.0 0.0 0.0 1.4 0.5 1.7 0.0 0.8 2.1 2.2 1.7 2.2 6.2 6.3 4.3 2.0 1.3 1.5 1.3 1.3 0.9 0.3 1.5 1.3
0.0 0.0 0.0 0.0 0.0 0.0 0.0 0.0 0.0 0.0 0.0 3.1 1.5 0.0 0.0 0.0 0.0 0.0 0.0 0.0 0.0 0.0 1.6 1.8 1.9 0.0 0.1 0.1 2.2 2.4 1.1 3.6 6.8 11.8 9.4 5.7 5.0 2.8 1.8 1.8 2.1 1.2 0.5 0.0
0.0 0.0 0.0 0.0 0.0 0.0 0.0 25.6 0.0 0.0 0.0 5.1 4.1 0.0 0.0 0.0 0.0 0.0 0.0 0.0 0.0 0.0 0.4 1.6 0.0 0.0 0.1 5.2 6.1 2.4 1.3 1.4 2.8 5.5 7.9 7.6 4.8 3.5 2.3 1.5 0.7 0.0 0.0 0.0
0.0 0.0 0.0 0.0 0.0 0.0 0.0 5.8 0.0 0.0 0.0 6.0 8.0 1.5 0.0 0.0 0.0 0.0 0.0 0.0 0.0 0.0 0.0 0.4 0.4 0.0 0.1 5.6 7.8 3.6 2.6 2.6 3.1 3.2 3.6 2.7 1.7 1.1 0.5 0.0 0.0 0.0 0.0 0.0
0.0 0.0 0.0 0.0 0.0 0.0 0.0 0.0 0.0 0.0 0.0 0.7 7.4 7.1 3.0 0.0 0.0 2.0 0.0 0.0 0.0 0.0 0.1 0.8 0.2 0.9 0.6 5.0 0.4 0.0 0.4 0.5 1.2 1.3 0.4 0.9 0.5 0.0 0.0 0.0 0.0 0.0 0.0 0.3
0.0 0.0 0.0 0.0 0.0 1.2 0.0 0.0 0.0 0.0 0.0 4.7 3.1 6.7 12.6 0.0 0.0 0.0 1.8 0.0 6.3 0.0 3.0 1.6 1.0 2.4 7.2 4.4 0.6 0.0 0.0 0.0 0.0 0.0 0.1 0.0 0.2 0.0 0.0 0.0 0.0 0.4 2.7 1.8
0.0 0.0 0.3 39.2 3.0 0.0 0.0 0.0 5.3 5.4 2.6 1.8 2.7 0.9 4.7 0.0 0.6 1.8 1.2 1.1 3.0 4.4 1.6 0.0 3.6 6.6 4.5 1.3 0.3 0.0 0.0 0.0 0.0 0.0 0.0 0.0 0.3 0.4 0.3 1.2 1.9 2.7 2.3 1.0
0.0 14.1 15.7 0.0 0.0 0.0 2.1 19.4 11.5 6.5 3.9 0.6 0.6 0.0 7.6 3.5 7.5 2.3 0.2 4.7 3.2 4.7 2.0 4.3 5.6 3.9 3.1 1.7 0.9 0.2 0.0 0.0 0.0 0.0 0.0 0.1 0.4 1.3 3.0 2.0 0.1 0.0 0.8 1.0
0.0 0.0 0.0 0.0 6.6 10.1 17.1 13.7 7.3 3.1 3.5 1.1 1.5 1.6 1.1 8.5 1.8 6.8 8.8 9.2 6.3 4.6 3.5 4.8 6.6 4.5 0.7 0.1 0.2 0.2 0.1 0.0 0.1 0.3 0.4 0.4 1.3 0.6 1.5 1.3 1.4 1.5 1.4 2.0
0.0 3.2 9.9 17.3 22.2 23.3 15.5 9.4 5.2 3.0 3.8 1.3 1.5 2.3 1.4 3.5 5.0 14.6 8.1 7.9 13.2 3.9 10.0 8.3 5.4 3.0 1.3 1.4 0.3 0.2 0.2 0.2 0.2 0.4 0.3 0.4 0.7 0.7 0.6 1.0 1.4 1.6 2.8 3.9
6.8 19.8 20.5 20.6 16.0 10.5 9.1 4.7 2.9 2.8 2.3 1.4 3.4 1.6 2.3 2.5 8.9 14.4 14.0 14.4 11.3 14.6 8.5 6.2 5.9 6.5 6.1 4.0 3.1 2.1 3.4 2.2 2.2 2.3 2.4 2.6 3.9 3.7 5.4 6.2 7.2 6.7 8.7 11.2
12.4 12.0 12.2 10.4 11.5 9.2 7.5 6.2 4.3 2.6 2.8 2.1 3.5 3.4 4.6 8.0 12.3 10.0 8.6 8.3 7.9 6.3 7.0 6.7 6.5 6.9 5.5 4.5 4.9 5.2 5.6 5.4 5.9 6.1 6.1 7.1 7.3 6.6 8.4 9.4 9.3 7.8 7.8 7.9
6.5 6.4 8.9 7.9 6.3 7.7 6.4 6.2 7.0 4.1 5.4 4.7 5.3 6.6 7.5 8.1 6.7 4.0 5.2 4.4 6.1 7.3 5.8 4.4 4.5 5.0 5.5 6.0 6.0 6.8 7.0 6.5 6.2 6.3 5.8 6.0 6.2 5.6 6.3 6.7 6.4 6.6 5.4 5.4
4.7 8.3 8.6 7.8 6.5 7.8 7.7 6.8 5.5 3.8 3.6 6.0 5.0 4.2 4.8 3.0 2.8 4.8 5.1 6.5 6.6 5.4 6.3 6.8 6.3 6.5 7.4 7.3 7.8 8.1 7.7 6.7 6.3 6.0 5.8 6.0 5.9 4.4 2.9 3.9 5.6 4.4 4.2 3.7

GFSNW_prec_snow_123.txt.gz
Snowfall_Accumulation
0.0 0.0 0.0 0.0 0.0 0.0 0.0 0.0 11.7 0.0 0.0 7.6 4.3 2.7 0.1 0.0 0.2 0.0 1.6 2.4 4.2 6.6 4.8 5.2 6.0 3.0 3.4 0.0 0.0 0.0 0.0 7.3 6.5 1.5 0.0 0.0 0.0 0.0 0.0 5.3 2.6 2.6 8.4 15.0
0.0 0.0 0.0 0.0 0.0 0.0 0.0 2.2 0.2 0.0 0.0 5.6 3.2 1.0 0.1 0.0 0.0 0.0 1.4 2.0 4.4 6.1 7.8 9.2 11.0 3.5 0.0 0.0 0.0 0.0 0.0 5.8 1.9 3.1 0.0 0.0 0.3 0.0 0.0 0.6 2.0 7.8 12.2 13.8
0.0 0.0 0.0 0.0 0.0 0.0 0.0 9.7 15.2 0.0 0.0 2.3 1.4 1.4 0.4 0.1 0.0 0.0 0.1 2.9 5.7 6.2 7.4 6.9 9.2 3.4 0.0 0.0 0.0 0.0 0.0 1.2 2.7 5.2 7.6 4.2 2.8 1.1 0.0 1.9 6.7 6.4 9.5 8.9
0.0 0.0 0.0 0.0 0.0 0.0 0.0 15.5 12.6 0.3 8.2 3.1 1.5 1.4 2.0 1.0 1.1 0.2 1.0 4.7 3.9 4.4 6.6 4.5 5.1 4.6 0.1 0.0 0.0 0.0 0.0 2.1 6.5 3.6 4.7 3.1 6.1 5.8 7.4 6.5 3.7 6.1 8.3 4.6
0.0 0.0 0.0 0.0 0.0 0.0 0.0 32.7 3.8 0.0 1.2 0.8 2.8 3.3 1.0 0.4 1.1 3.7 2.5 0.7 0.5 1.0 1.1 2.5 2.7 3.1 1.8 1.6 0.0 0.0 0.0 2.1 6.6 12.2 6.3 2.6 7.5 9.0 6.6 3.5 3.2 4.1 2.3 3.4
0.0 0.0 0.0 0.0 0.0 0.0 0.0 0.0 0.0 0.8 0.8 0.2 3.4 4.4 2.1 1.1 1.0 0.5 0.3 0.0 0.1 0.1 0.0 0.0 0.0 0.0 0.0 0.0 0.2 0.3 0.0 0.4 0.8 4.4 3.9 0.9 3.6 7.4 4.2 2.3 1.6 1.1 1.3 1.7
0.0 0.0 0.0 0.0 0.0 0.0 0.0 0.0 0.0 4.2 5.9 1.3 0.3 0.2 0.0 0.1 0.0 0.0 0.0 0.0 0.1 0.0 0.0 0.0 0.0 0.0 0.0 0.0 0.0 0.0 0.0 0.1 0.2 1.6 1.3 4.5 8.0 3.1 1.8 1.0 1.3 0.9 0.3 1.3
0.0 0.0 0.0 0.0 0.0 0.0 0.0 0.0 0.0 1.1 3.8 0.8 0.3 0.0 0.4 0.0 0.0 0.0 0.0 0.0 0.0 0.0 0.0 0.6 0.2 0.1 0.0 0.0 0.0 0.0 0.0 0.1 2.7 1.5 0.5 3.0 1.5 0.5 0.4 0.6 1.3 0.9 0.9 0.9
0.0 0.0 0.0 0.0 0.0 0.0 0.0 0.0 0.0 0.0 4.2 1.1 0.0 0.0 0.0 0.2 1.2 0.5 0.0 0.0 0.0 0.0 1.8 1.6 1.2 0.8 0.3 0.3 0.1 0.0 0.0 0.1 1.3 2.5 1.2 2.1 0.6 0.0 0.0 0.0 1.3 0.5 0.4 0.3
0.0 0.0 0.0 0.0 0.0 0.0 0.0 0.0 0.0 0.1 9.6 0.0 0.0 0.0 0.5 0.0 0.3 2.3 0.0 0.3 0.0 0.0 2.4 2.2 0.7 0.8 0.0 1.7 2.1 0.8 1.1 0.5 2.1 2.5 2.2 0.1 0.0 0.2 0.1 1.0 2.2 0.8 0.1 0.0
0.0 0.0 0.0 0.0 0.0 0.0 0.0 0.0 0.0 0.0 9.7 0.0 0.0 0.0 0.0 0.0 0.4 2.4 0.0 4.0 3.3 2.0 2.1 1.2 0.8 1.1 0.6 1.2 0.2 0.9 0.5 2.2 1.0 3.3 3.2 1.3 0.0 0.1 0.0 1.3 0.9 0.6 0.5 0.1
0.0 0.0 0.0 0.0 0.0 0.0 0.0 0.0 0.0 0.0 0.2 0.0 0.0 0.0 0.0 0.0 0.0 0.0 0.0 0.0 0.9 0.8 2.9 1.4 1.2 0.6 1.4 0.2 3.1 0.0 3.4 0.8 0.9 0.2 1.6 1.7 0.8 0.8 0.7 0.1 0.5 0.7 0.4 0.9
0.0 0.0 0.0 0.0 0.0 0.0 0.0 0.0 0.0 0.0 6.2 0.0 0.0 0.0 0.0 0.0 0.0 0.0 0.8 0.0 0.0 1.6 0.0 2.9 2.1 2.7 0.1 1.1 0.9 2.3 2.5 0.0 2.7 2.0 4.2 1.7 0.9 0.7 0.4 0.4 0.7 1.0 1.1 0.7
0.0 0.0 0.0 0.0 0.0 0.0 0.0 0.0 0.0 0.0 0.3 7.0 0.4 0.0 0.0 0.0 0.0 0.0 0.0 0.0 0.0 0.0 0.0 1.4 0.5 1.7 0.0 0.8 2.1 2.2 1.7 2.2 6.2 6.4 4.5 2.0 1.3 1.5 1.3 1.3 0.9 0.3 1.5 1.3
0.0 0.0 0.0 0.0 0.0 0.0 0.0 0.0 0.0 0.0 0.0 3.1 1.5 0.0 0.0 0.0 0.0 0.0 0.0 0.0 0.0 0.0 1.6 1.8 1.9 0.0 0.1 0.1 2.2 2.4 1.1 3.6 6.8 11.8 9.4 5.7 5.0 2.8 1.8 1.8 2.1 1.2 0.5 0.0
0.0 0.0 0.0 0.0 0.0 0.0 0.0 25.6 0.0 0.0 0.0 5.1 4.1 0.0 0.0 0.0 0.0 0.0 0.0 0.0 0.0 0.0 0.4 1.6 0.0 0.0 0.1 5.2 6.1 2.4 1.3 1.4 2.8 5.5 7.9 7.6 4.8 3.5 2.3 1.5 0.7 0.0 0.0 0.0
0.0 0.0 0.0 0.0 0.0 0.0 0.0 5.8 0.0 0.0 0.0 6.0 8.0 1.5 0.0 0.0 0.0 0.0 0.0 0.0 0.0 0.0 0.0 0.4 0.4 0.0 0.1 5.6 7.8 3.6 2.6 2.6 3.1 3.2 3.6 2.7 1.7 1.1 0.5 0.0 0.0 0.0 0.0 0.0
0.0 0.0 0.0 0.0 0.0 0.0 0.0 0.0 0.0 0.0 0.0 0.7 7.4 7.1 3.0 0.0 0.0 2.0 0.0 0.0 0.0 0.0 0.1 0.8 0.2 0.9 0.6 5.0 0.4 0.0 0.4 0.5 1.2 1.3 0.4 0.9 0.5 0.0 0.0 0.0 0.0 0.0 0.0 0.3
0.0 0.0 0.0 0.0 0.0 1.2 0.0 0.0 0.0 0.0 0.0 4.7 3.1 6.7 12.6 0.0 0.0 0.0 1.8 0.0 6.3 0.0 3.0 1.6 1.0 2.4 7.2 4.4 0.6 0.0 0.0 0.0 0.0 0.0 0.1 0.0 0.2 0.0 0.0 0.0 0.0 0.4 2.7 1.8
0.0 0.0 0.3 39.2 3.0 0.0 0.0 0.0 5.3 5.4 2.6 1.8 2.7 0.9 4.7 0.0 0.6 1.8 1.2 1.1 3.0 4.4 1.6 0.0 3.6 6.6 4.5 1.3 0.3 0.0 0.0 0.0 0.0 0.0 0.0 0.0 0.3 0.4 0.3 1.2 1.9 2.7 2.3 1.0
0.0 14.1 15.8 0.0 0.0 0.0 2.1 19.4 11.5 6.5 3.9 0.6 0.6 0.0 7.6 3.5 7.5 2.3 0.2 4.7 3.2 4.7 2.0 4.3 5.6 3.9 3.1 1.7 0.9 0.2 0.0 0.0 0.0 0.0 0.0 0.1 0.4 1.3 3.0 2.0 0.1 0.0 0.8 1.0
0.0 0.0 0.0 0.0 6.6 10.1 17.1 13.7 7.3 3.1 3.5 1.1 1.5 1.6 1.1 8.5 1.8 6.8 8.8 9.2 6.3 4.6 3.5 4.8 6.6 4.5 0.7 0.1 0.2 0.2 0.1 0.0 0.1 0.3 0.4 0.4 1.3 0.6 1.5 1.3 1.4 1.5 1.4 2.0
0.0 3.2 9.9 17.3 22.3 23.3 15.5 9.4 5.2 3.0 3.8 1.3 1.5 2.3 1.4 3.5 5.0 14.6 8.1 7.9 13.2 3.9 10.0 8.3 5.4 3.0 1.3 1.4 0.3 0.2 0.2 0.2 0.2 0.4 0.3 0.4 0.7 0.7 0.6 1.0 1.4 1.6 2.8 3.9
6.8 19.8 20.6 20.6 16.0 10.5 9.1 4.7 2.9 2.8 2.3 1.4 3.4 1.6 2.3 2.5 8.9 14.4 14.0 14.4 11.3 14.6 8.5 6.2 5.9 6.5 6.1 4.0 3.1 2.1 3.4 2.2 2.2 2.3 2.4 2.6 3.9 3.7 5.4 6.2 7.2 6.7 8.7 11.2
12.4 12.0 12.2 10.4 11.5 9.2 7.5 6.2 4.3 2.6 2.8 2.1 3.5 3.4 4.6 8.0 12.3 10.0 8.6 8.3 7.9 6.3 7.0 6.7 6.5 6.9 5.5 4.5 4.9 5.2 5.6 5.4 5.9 6.1 6.1 7.1 7.3 6.6 8.4 9.4 9.3 7.8 7.8 7.9
6.5 6.4 9.0 8.0 6.3 7.7 6.4 6.2 7.0 4.1 5.4 4.7 5.3 6.6 7.5 8.1 6.7 4.0 5.2 4.4 6.1 7.3 5.8 4.4 4.5 5.0 5.5 6.0 6.0 6.8 7.0 6.5 6.2 6.3 5.8 6.0 6.2 5.6 6.3 6.7 6.4 6.6 5.4 5.4
4.7 8.3 8.7 7.8 6.6 7.9 7.9 6.9 5.5 3.8 3.6 6.0 5.0 4.2 4.8 3.0 2.8 4.8 5.1 6.5 6.6 5.4 6.3 6.8 6.3 6.5 7.4 7.3 7.8 8.1 7.7 6.7 6.3 6.0 5.8 6.0 5.9 4.4 2.9 3.9 5.6 4.4 4.2 3.7

GFSNW_prec_snow_129.txt.gz
Snowfall_Accumulation
0.0 0.0 0.0 0.0 0.0 0.0 0.0 0.0 15.5 0.0 0.0 9.2 5.7 3.1 0.1 0.0 0.2 0.0 1.6 2.4 4.2 6.6 4.8 5.2 6.0 3.0 3.4 0.0 0.0 0.0 0.0 7.3 6.5 1.5 0.0 0.0 0.0 0.1 0.1 5.7 3.1 3.1 8.9 15.8
0.0 0.0 0.0 0.0 0.0 0.0 0.0 5.0 3.9 0.0 0.0 7.1 3.7 1.0 0.1 0.0 0.0 0.0 1.4 2.0 4.4 6.1 7.8 9.2 11.0 3.5 0.0 0.0 0.0 0.0 0.0 5.9 2.0 3.1 0.0 0.0 0.3 0.0 0.0 0.6 2.0 8.2 12.7 14.5
0.0 0.0 0.0 0.0 0.0 0.0 0.0 9.7 19.5 0.0 0.0 2.3 1.4 1.4 0.4 0.1 0.0 0.0 0.1 2.9 5.7 6.2 7.4 6.9 9.2 3.4 0.0 0.0 0.0 0.0 0.0 1.2 2.7 5.3 7.6 4.2 2.8 1.1 0.0 2.4 8.3 7.7 9.9 9.4
0.0 0.0 0.0 0.0 0.0 0.0 0.0 15.5 13.2 0.3 9.4 3.9 1.5 1.5 2.0 1.0 1.1 0.2 1.0 4.7 3.9 4.4 6.6 4.5 5.1 4.6 0.1 0.0 0.0 0.0 0.0 2.3 6.5 3.6 4.7 3.1 6.3 6.2 7.5 6.5 4.2 6.5 8.7 4.6
0.0 0.0 0.0 0.0 0.0 0.0 0.0 34.2 4.2 0.0 1.2 0.8 2.8 3.3 1.0 0.4 1.1 3.7 2.5 0.7 0.5 1.0 1.1 2.5 2.7 3.1 1.8 1.6 0.0 0.0 0.0 2.2 6.8 12.7 6.4 2.6 7.8 9.4 7.0 3.7 3.3 4.1 2.3 3.6
0.0 0.0 0.0 0.0 0.0 0.0 0.0 0.0 0.0 0.8 0.8 0.7 3.4 4.6 2.1 1.1 1.0 0.5 0.3 0.0 0.1 0.1 0.0 0.0 0.0 0.0 0.0 0.0 0.2 0.3 0.0 0.4 0.9 5.1 4.2 1.1 4.0 7.9 4.6 2.4 1.7 1.2 1.3 1.8
0.0 0.0 0.0 0.0 0.0 0.0 0.0 0.0 0.0 4.2 6.4 1.6 0.4 0.2 0.0 0.1 0.0 0.0 0.0 0.0 0.1 0.0 0.0 0.0 0.0 0.0 0.0 0.0 0.0 0.0 0.0 0.1 0.2 2.1 1.8 5.4 8.3 3.5 2.2 1.2 1.4 0.9 0.4 1.4
0.0 0.0 0.0 0.0 0.0 0.0 0.0 0.0 0.0 1.1 3.9 0.8 0.3 0.0 0.4 0.0 0.0 0.0 0.0 0.0 0.0 0.0 0.0 0.6 0.2 0.1 0.0 0.0 0.0 0.0 0.0 0.1 3.0 2.0 1.0 3.5 1.9 0.5 0.6 1.1 1.5 0.9 0.9 1.0
0.0 0.0 0.0 0.0 0.0 0.0 0.0 0.0 0.0 0.0 4.2 1.1 0.0 0.0 0.0 0.2 1.2 0.5 0.0 0.0 0.0 0.0 1.8 1.6 1.2 0.8 0.3 0.4 0.1 0.0 0.0 0.1 1.5 2.7 1.6 2.4 0.6 0.0 0.0 0.0 1.6 0.5 0.4 0.3
0.0 0.0 0.0 0.0 0.0 0.0 0.0 0.0 0.0 0.1 9.6 0.0 0.0 0.0 0.5 0.0 0.3 2.3 0.0 0.3 0.0 0.0 2.4 2.2 0.7 0.8 0.0 1.7 2.1 0.8 1.2 0.5 2.3 2.8 2.6 0.1 0.0 0.2 0.1 1.4 2.6 0.8 0.1 0.0
0.0 0.0 0.0 0.0 0.0 0.0 0.0 0.0 0.0 0.0 9.7 0.0 0.0 0.0 0.0 0.0 0.4 2.4 0.0 4.0 3.3 2.0 2.1 1.2 0.8 1.1 0.6 1.2 0.2 0.9 0.5 2.2 1.0 3.5 3.6 1.6 0.0 0.1 0.0 1.3 0.9 0.6 0.5 0.1
0.0 0.0 0.0 0.0 0.0 0.0 0.0 0.0 0.0 0.0 0.2 0.0 0.0 0.0 0.0 0.0 0.0 0.0 0.0 0.0 0.9 0.8 2.9 1.4 1.2 0.6 1.4 0.2 3.1 0.0 3.4 0.8 1.0 0.2 1.7 1.7 0.8 0.8 0.7 0.1 0.5 0.7 0.4 0.9
0.0 0.0 0.0 0.0 0.0 0.0 0.0 0.0 0.0 0.0 6.2 0.0 0.0 0.0 0.0 0.0 0.0 0.0 0.8 0.0 0.0 1.6 0.0 2.9 2.1 2.7 0.1 1.1 0.9 2.3 2.5 0.0 2.7 2.0 4.2 1.7 0.9 0.7 0.4 0.4 0.7 1.0 1.1 0.7
0.0 0.0 0.0 0.0 0.0 0.0 0.0 0.0 0.0 0.0 0.3 7.0 0.4 0.0 0.0 0.0 0.0 0.0 0.0 0.0 0.0 0.0 0.0 1.4 0.5 1.7 0.0 0.8 2.1 2.2 1.7 2.2 6.2 6.4 4.5 2.0 1.3 1.5 1.3 1.3 0.9 0.3 1.5 1.3
0.0 0.0 0.0 0.0 0.0 0.0 0.0 0.0 0.0 0.0 0.0 3.1 1.6 0.0 0.0 0.0 0.0 0.0 0.0 0.0 0.0 0.0 1.6 1.8 1.9 0.0 0.1 0.1 2.2 2.4 1.1 3.6 6.8 11.9 9.4 5.7 5.0 2.8 1.8 1.8 2.1 1.2 0.5 0.0
0.0 0.0 0.0 0.0 0.0 0.0 0.0 25.6 0.0 0.0 0.0 5.1 4.2 0.0 0.0 0.0 0.0 0.0 0.0 0.0 0.0 0.0 0.4 1.6 0.0 0.0 0.1 5.2 6.1 2.4 1.3 1.4 2.8 5.5 7.9 7.6 4.8 3.5 2.3 1.5 0.7 0.0 0.0 0.0
0.0 0.0 0.0 0.0 0.0 0.0 0.0 5.8 0.0 0.0 0.0 6.0 8.0 1.6 0.0 0.0 0.0 0.0 0.0 0.0 0.0 0.0 0.0 0.4 0.4 0.0 0.1 5.6 7.8 3.6 2.6 2.6 3.1 3.2 3.6 2.7 1.7 1.1 0.5 0.0 0.0 0.0 0.0 0.0
0.0 0.0 0.0 0.0 0.0 0.0 0.0 0.0 0.0 0.0 0.0 0.7 7.4 7.3 3.0 0.0 0.0 2.0 0.0 0.0 0.0 0.0 0.1 0.8 0.2 0.9 0.6 5.0 0.4 0.0 0.4 0.5 1.2 1.3 0.4 0.9 0.5 0.0 0.0 0.0 0.0 0.0 0.0 0.3
0.0 0.0 0.0 0.0 0.0 1.2 0.0 0.0 0.0 0.0 0.0 4.7 3.1 6.7 12.7 0.0 0.0 0.0 1.8 0.0 6.3 0.0 3.0 1.6 1.0 2.4 7.2 4.4 0.6 0.0 0.0 0.0 0.0 0.0 0.1 0.0 0.2 0.0 0.0 0.0 0.0 0.4 2.7 1.8
0.0 0.0 0.3 39.2 3.0 0.0 0.0 0.0 5.3 5.4 2.6 1.8 2.7 0.9 4.7 0.0 0.6 1.8 1.2 1.1 3.0 4.4 1.6 0.0 3.6 6.6 4.5 1.3 0.3 0.0 0.0 0.0 0.0 0.0 0.0 0.0 0.3 0.4 0.3 1.2 1.9 2.7 2.3 1.0
0.0 14.1 15.8 0.0 0.0 0.0 2.1 19.4 11.5 6.5 3.9 0.6 0.6 0.0 7.6 3.5 7.5 2.3 0.2 4.7 3.2 4.7 2.0 4.3 5.6 3.9 3.1 1.7 0.9 0.2 0.0 0.0 0.0 0.0 0.0 0.1 0.4 1.3 3.0 2.0 0.1 0.0 0.8 1.0
0.0 0.0 0.0 0.0 6.6 10.1 17.1 13.7 7.3 3.1 3.5 1.1 1.5 1.6 1.1 8.5 1.8 6.8 8.8 9.2 6.3 4.6 3.5 4.8 6.6 4.5 0.7 0.1 0.2 0.2 0.1 0.0 0.1 0.3 0.4 0.4 1.3 0.6 1.5 1.3 1.4 1.5 1.4 2.0
0.0 3.2 9.9 17.3 22.3 23.3 15.5 9.4 5.2 3.0 3.8 1.3 1.5 2.3 1.4 3.5 5.0 14.6 8.1 7.9 13.2 3.9 10.0 8.3 5.4 3.0 1.3 1.4 0.3 0.2 0.2 0.2 0.2 0.4 0.3 0.4 0.7 0.7 0.6 1.0 1.4 1.6 2.8 3.9
6.9 19.8 20.6 20.6 16.0 10.5 9.1 4.7 2.9 2.8 2.3 1.4 3.4 1.6 2.3 2.5 8.9 14.4 14.0 14.4 11.3 14.6 8.5 6.2 5.9 6.5 6.1 4.0 3.1 2.1 3.4 2.2 2.2 2.3 2.4 2.6 3.9 3.7 5.4 6.2 7.2 6.7 8.7 11.2
12.4 12.0 12.2 10.4 11.5 9.2 7.5 6.2 4.3 2.6 2.8 2.1 3.5 3.4 4.6 8.0 12.3 10.0 8.6 8.3 7.9 6.3 7.0 6.7 6.5 6.9 5.5 4.5 4.9 5.2 5.6 5.4 5.9 6.1 6.1 7.1 7.3 6.6 8.4 9.4 9.3 7.8 7.8 7.9
6.5 6.4 9.1 8.0 6.4 7.9 6.4 6.3 7.0 4.1 5.4 4.7 5.3 6.6 7.5 8.1 6.7 4.0 5.2 4.4 6.1 7.3 5.8 4.4 4.5 5.0 5.5 6.0 6.0 6.8 7.0 6.5 6.2 6.3 5.8 6.0 6.2 5.6 6.3 6.7 6.4 6.6 5.4 5.4
4.7 8.4 8.7 7.9 6.8 8.1 8.0 6.9 5.5 3.8 3.6 6.0 5.0 4.2 4.8 3.0 2.8 4.8 5.1 6.5 6.6 5.4 6.3 6.8 6.3 6.5 7.4 7.3 7.8 8.1 7.7 6.7 6.3 6.0 5.8 6.0 5.9 4.4 2.9 3.9 5.6 4.4 4.2 3.7

GFSNW_prec_snow_132.txt.gz
Snowfall_Accumulation
0.0 0.0 0.0 0.0 0.0 0.0 0.0 0.0 16.1 0.0 0.0 10.3 5.7 3.5 0.1 0.0 0.2 0.0 1.6 2.4 4.2 6.6 4.8 5.2 6.0 3.0 3.4 0.0 0.0 0.0 0.0 7.3 6.5 1.5 0.0 0.0 0.0 0.1 0.1 6.1 3.2 3.5 9.6 15.8
0.0 0.0 0.0 0.0 0.0 0.0 0.0 5.0 3.9 0.0 0.0 7.6 4.2 1.0 0.1 0.0 0.0 0.0 1.4 2.0 4.4 6.1 7.8 9.2 11.0 3.5 0.0 0.0 0.0 0.0 0.0 5.9 2.0 3.1 0.0 0.0 0.3 0.0 0.0 0.6 2.3 8.2 13.2 14.5
0.0 0.0 0.0 0.0 0.0 0.0 0.0 9.7 21.1 0.0 0.0 2.3 1.4 1.5 0.4 0.1 0.0 0.0 0.1 2.9 5.7 6.2 7.4 6.9 9.2 3.4 0.0 0.0 0.0 0.0 0.0 1.2 2.7 5.9 7.9 4.2 2.8 1.1 0.0 2.4 8.3 7.7 10.4 9.5
0.0 0.0 0.0 0.0 0.0 0.0 0.0 15.5 13.3 0.3 10.4 4.6 1.5 1.5 2.0 1.0 1.1 0.2 1.0 4.7 3.9 4.5 6.6 4.5 5.1 4.6 0.1 0.0 0.0 0.0 0.0 2.4 6.5 3.6 4.7 3.1 6.3 6.2 7.5 6.5 4.3 6.8 8.9 4.6
0.0 0.0 0.0 0.0 0.0 0.0 0.0 34.2 4.2 0.0 1.2 0.8 2.8 3.3 1.0 0.4 1.1 3.7 2.5 0.7 0.5 1.0 1.1 2.5 2.7 3.1 1.8 1.6 0.0 0.0 0.0 2.3 6.8 12.7 6.4 2.6 7.8 9.4 7.0 3.7 3.3 4.1 2.3 3.6
0.0 0.0 0.0 0.0 0.0 0.0 0.0 0.0 0.0 0.8 0.8 0.7 3.4 4.7 2.1 1.1 1.0 0.5 0.3 0.0 0.1 0.1 0.0 0.0 0.0 0.0 0.0 0.0 0.2 0.3 0.0 0.6 0.9 5.1 4.2 1.2 4.2 7.9 4.6 2.4 1.7 1.2 1.3 1.8
0.0 0.0 0.0 0.0 0.0 0.0 0.0 0.0 0.0 4.2 6.9 1.6 0.4 0.2 0.0 0.1 0.0 0.0 0.0 0.0 0.1 0.0 0.0 0.0 0.0 0.0 0.0 0.0 0.0 0.0 0.0 0.2 0.3 2.5 1.9 5.7 8.3 3.5 2.2 1.2 1.4 0.9 0.4 1.4
0.0 0.0 0.0 0.0 0.0 0.0 0.0 0.0 0.0 1.1 4.6 0.8 0.3 0.0 0.4 0.0 0.0 0.0 0.0 0.0 0.0 0.0 0.0 0.6 0.2 0.1 0.0 0.0 0.0 0.0 0.0 0.1 3.1 2.3 1.5 3.5 1.9 0.5 0.6 1.1 1.5 0.9 0.9 1.0
0.0 0.0 0.0 0.0 0.0 0.0 0.0 0.0 0.0 0.0 4.5 1.8 0.0 0.0 0.0 0.3 1.2 0.5 0.0 0.0 0.0 0.0 1.8 1.6 1.2 0.8 0.3 0.4 0.1 0.0 0.0 0.1 1.6 2.8 2.0 3.0 0.6 0.0 0.0 0.0 1.6 0.5 0.4 0.3
0.0 0.0 0.0 0.0 0.0 0.0 0.0 0.0 0.0 0.1 9.6 0.0 0.0 0.0 0.5 0.0 0.3 2.3 0.0 0.3 0.0 0.0 2.4 2.2 0.7 0.8 0.0 1.7 2.1 0.8 1.2 0.6 2.3 2.8 2.9 0.1 0.0 0.2 0.1 1.4 2.7 0.8 0.1 0.0
0.0 0.0 0.0 0.0 0.0 0.0 0.0 0.0 0.0 0.0 9.7 0.0 0.0 0.0 0.0 0.0 0.4 2.4 0.0 4.0 3.3 2.0 2.1 1.2 0.8 1.1 0.6 1.2 0.2 0.9 0.5 2.3 1.1 3.5 3.6 1.9 0.0 0.1 0.0 1.3 0.9 0.6 0.5 0.1
0.0 0.0 0.0 0.0 0.0 0.0 0.0 0.0 0.0 0.0 0.2 0.0 0.0 0.0 0.0 0.0 0.0 0.0 0.0 0.0 0.9 0.8 2.9 1.4 1.2 0.6 1.4 0.2 3.1 0.0 3.4 0.8 1.0 0.2 1.7 1.7 0.8 0.8 0.7 0.1 0.5 0.7 0.4 0.9
0.0 0.0 0.0 0.0 0.0 0.0 0.0 0.0 0.0 0.0 6.2 0.0 0.0 0.0 0.0 0.0 0.0 0.0 0.8 0.0 0.0 1.6 0.0 2.9 2.1 2.7 0.1 1.1 0.9 2.3 2.5 0.0 2.7 2.0 4.2 1.7 0.9 0.7 0.4 0.4 0.7 1.0 1.1 0.7
0.0 0.0 0.0 0.0 0.0 0.0 0.0 0.0 0.0 0.0 0.3 7.0 0.4 0.0 0.0 0.0 0.0 0.0 0.0 0.0 0.0 0.0 0.0 1.4 0.5 1.7 0.0 0.8 2.1 2.2 1.7 2.2 6.2 6.4 4.5 2.0 1.3 1.5 1.3 1.3 0.9 0.3 1.5 1.3
0.0 0.0 0.0 0.0 0.0 0.0 0.0 0.0 0.0 0.0 0.0 3.1 1.6 0.0 0.0 0.0 0.0 0.0 0.0 0.0 0.0 0.0 1.6 1.8 1.9 0.0 0.1 0.1 2.2 2.4 1.1 3.6 6.8 11.9 9.4 5.7 5.0 2.8 1.8 1.8 2.1 1.2 0.5 0.0
0.0 0.0 0.0 0.0 0.0 0.0 0.0 25.6 0.0 0.0 0.0 5.1 4.2 0.0 0.0 0.0 0.0 0.0 0.0 0.0 0.0 0.0 0.4 1.6 0.0 0.0 0.1 5.2 6.1 2.4 1.3 1.4 2.8 5.5 7.9 7.6 4.8 3.5 2.3 1.5 0.7 0.0 0.0 0.0
0.0 0.0 0.0 0.0 0.0 0.0 0.0 5.8 0.0 0.0 0.0 6.0 8.1 1.6 0.0 0.0 0.0 0.0 0.0 0.0 0.0 0.0 0.0 0.4 0.4 0.0 0.1 5.6 7.8 3.6 2.6 2.6 3.1 3.2 3.6 2.7 1.7 1.1 0.5 0.0 0.0 0.0 0.0 0.0
0.0 0.0 0.0 0.0 0.0 0.0 0.0 0.0 0.0 0.0 0.0 0.7 7.4 7.4 3.0 0.0 0.0 2.0 0.0 0.0 0.0 0.0 0.1 0.8 0.2 0.9 0.6 5.0 0.4 0.0 0.4 0.5 1.2 1.3 0.4 0.9 0.5 0.0 0.0 0.0 0.0 0.0 0.0 0.3
0.0 0.0 0.0 0.0 0.0 1.2 0.0 0.0 0.0 0.0 0.0 4.7 3.1 6.7 12.7 0.0 0.0 0.0 1.8 0.0 6.3 0.0 3.0 1.6 1.0 2.4 7.2 4.4 0.6 0.0 0.0 0.0 0.0 0.0 0.1 0.0 0.2 0.0 0.0 0.0 0.0 0.4 2.7 1.8
0.0 0.0 0.3 39.2 3.0 0.0 0.0 0.0 5.3 5.4 2.6 1.8 2.7 0.9 4.7 0.0 0.6 1.8 1.2 1.1 3.0 4.4 1.7 0.0 3.6 6.6 4.5 1.3 0.3 0.0 0.0 0.0 0.0 0.0 0.0 0.0 0.3 0.4 0.3 1.2 1.9 2.7 2.3 1.0
0.0 14.1 15.8 0.0 0.0 0.0 2.1 19.4 11.5 6.5 3.9 0.6 0.6 0.0 7.6 3.5 7.5 2.3 0.2 4.7 3.2 4.7 2.0 4.3 5.6 3.9 3.1 1.7 0.9 0.2 0.0 0.0 0.0 0.0 0.0 0.1 0.4 1.3 3.0 2.0 0.1 0.0 0.8 1.0
0.0 0.0 0.0 0.0 6.6 10.1 17.1 13.7 7.3 3.1 3.5 1.1 1.5 1.6 1.1 8.5 1.8 6.8 8.8 9.2 6.3 4.6 3.5 4.8 6.6 4.5 0.7 0.1 0.2 0.2 0.1 0.0 0.1 0.3 0.4 0.4 1.3 0.6 1.5 1.3 1.4 1.5 1.4 2.0
0.0 3.2 9.9 17.3 22.3 23.3 15.5 9.4 5.2 3.1 3.8 1.3 1.5 2.4 1.4 3.5 5.0 14.6 8.1 7.9 13.2 3.9 10.0 8.3 5.5 3.0 1.3 1.4 0.3 0.2 0.2 0.2 0.2 0.4 0.3 0.4 0.7 0.7 0.6 1.0 1.4 1.6 2.8 3.9
6.9 19.8 20.6 20.6 16.0 10.5 9.1 4.7 2.9 2.8 2.3 1.4 3.4 1.6 2.3 2.5 8.9 14.4 14.0 14.4 11.3 14.6 8.5 6.2 5.9 6.5 6.1 4.0 3.1 2.1 3.4 2.2 2.2 2.3 2.4 2.6 3.9 3.7 5.4 6.2 7.2 6.7 8.7 11.2
12.4 12.1 12.2 10.4 11.6 9.3 7.5 6.2 4.3 2.6 2.8 2.1 3.5 3.4 4.6 8.0 12.3 10.0 8.6 8.3 7.9 6.3 7.0 6.7 6.5 6.9 5.5 4.5 4.9 5.2 5.6 5.4 5.9 6.1 6.1 7.1 7.3 6.6 8.4 9.4 9.3 7.8 7.8 7.9
6.5 6.4 9.1 8.1 6.5 7.9 6.4 6.3 7.0 4.1 5.4 4.7 5.3 6.6 7.5 8.1 6.7 4.0 5.2 4.4 6.1 7.3 5.8 4.4 4.5 5.0 5.5 6.0 6.0 6.8 7.0 6.5 6.2 6.3 5.8 6.0 6.2 5.6 6.3 6.7 6.4 6.6 5.4 5.4
4.7 8.5 8.7 8.1 6.9 8.1 8.0 7.0 5.5 3.8 3.6 6.1 5.0 4.2 4.8 3.0 2.8 4.8 5.1 6.5 6.7 5.4 6.3 6.8 6.3 6.5 7.4 7.3 7.8 8.1 7.7 6.7 6.3 6.0 5.8 6.0 5.9 4.4 2.9 3.9 5.6 4.4 4.2 3.7

GFSNW_prec_snow_135.txt.gz
Snowfall_Accumulation
0.0 0.0 0.0 0.0 0.0 0.0 0.0 0.0 16.1 0.0 0.0 12.1 7.0 3.9 0.1 0.0 0.2 0.0 1.6 2.4 4.2 6.6 4.8 5.2 6.0 3.0 3.4 0.0 0.0 0.0 0.0 7.3 6.5 1.5 0.0 0.0 0.0 0.1 0.1 6.1 3.2 3.5 9.6 15.8
0.0 0.0 0.0 0.0 0.0 0.0 0.0 5.0 3.9 0.0 0.0 8.0 4.7 1.0 0.1 0.0 0.0 0.0 1.4 2.0 4.4 6.1 7.8 9.2 11.0 3.5 0.0 0.0 0.0 0.0 0.0 5.9 2.0 3.1 0.0 0.0 0.3 0.0 0.0 0.6 2.3 8.2 13.2 14.5
0.0 0.0 0.0 0.0 0.0 0.0 0.0 9.7 23.0 0.0 0.0 2.3 1.4 1.5 0.4 0.1 0.0 0.0 0.1 2.9 5.7 6.2 7.4 6.9 9.2 3.4 0.0 0.0 0.0 0.0 0.0 1.2 2.8 6.4 7.9 4.2 2.8 1.1 0.0 2.4 8.3 7.7 10.4 9.6
0.0 0.0 0.0 0.0 0.0 0.0 0.0 15.5 14.2 0.3 12.6 6.9 2.7 1.5 2.0 1.1 1.2 0.2 1.0 4.7 3.9 4.5 6.6 4.5 5.1 4.6 0.1 0.0 0.0 0.0 0.0 2.5 6.5 3.6 4.7 3.1 6.3 6.2 7.5 6.5 4.3 6.8 8.9 4.6
0.0 0.0 0.0 0.0 0.0 0.0 0.0 37.9 5.4 0.0 1.2 0.8 3.8 3.3 1.2 0.4 1.1 3.7 2.5 0.7 0.5 1.0 1.1 2.5 2.7 3.1 1.8 1.6 0.0 0.0 0.0 2.3 6.8 12.7 6.4 2.6 7.8 9.4 7.0 3.7 3.3 4.1 2.3 3.6
0.0 0.0 0.0 0.0 0.0 0.0 0.0 0.0 0.0 0.8 1.0 0.8 4.0 5.1 2.1 1.1 1.0 0.5 0.3 0.0 0.1 0.1 0.0 0.0 0.0 0.0 0.0 0.0 0.2 0.3 0.0 0.6 0.9 5.1 4.2 1.2 4.2 7.9 4.6 2.4 1.7 1.2 1.3 1.8
0.0 0.0 0.0 0.0 0.0 0.0 0.0 0.0 0.0 4.2 7.0 1.6 0.4 0.2 0.0 0.1 0.0 0.0 0.0 0.0 0.1 0.0 0.0 0.0 0.0 0.0 0.0 0.0 0.0 0.0 0.0 0.2 0.3 2.5 1.9 6.0 8.3 3.5 2.2 1.2 1.4 0.9 0.4 1.4
0.0 0.0 0.0 0.0 0.0 0.0 0.0 0.0 0.0 1.1 4.6 0.8 0.3 0.0 0.4 0.0 0.0 0.0 0.0 0.0 0.0 0.0 0.0 0.6 0.2 0.1 0.0 0.0 0.0 0.0 0.0 0.1 3.1 2.4 1.5 3.5 1.9 0.5 0.6 1.1 1.5 0.9 0.9 1.0
0.0 0.0 0.0 0.0 0.0 0.0 0.0 0.0 0.0 0.0 4.5 1.8 0.0 0.0 0.0 0.3 1.2 0.5 0.0 0.0 0.0 0.0 1.8 1.6 1.2 0.8 0.3 0.4 0.1 0.0 0.0 0.1 1.6 2.8 2.3 3.3 0.6 0.0 0.0 0.0 1.6 0.5 0.4 0.3
0.0 0.0 0.0 0.0 0.0 0.0 0.0 0.0 0.0 0.1 9.6 0.0 0.0 0.0 1.2 0.0 0.3 2.7 0.0 0.3 0.0 0.0 2.4 2.3 0.7 0.8 0.0 1.8 2.1 0.8 1.2 0.6 2.3 2.8 2.9 0.1 0.0 0.2 0.1 1.4 2.7 0.8 0.1 0.0
0.0 0.0 0.0 0.0 0.0 0.0 0.0 0.0 0.0 0.0 9.7 0.0 0.0 0.0 0.0 0.0 0.4 2.5 0.0 4.1 3.3 2.0 2.1 1.2 0.8 1.1 0.6 1.2 0.2 0.9 0.5 2.3 1.1 3.5 3.6 2.1 0.0 0.1 0.0 1.3 0.9 0.6 0.5 0.1
0.0 0.0 0.0 0.0 0.0 0.0 0.0 0.0 0.0 0.0 0.2 0.0 0.0 0.0 0.0 0.0 0.0 0.0 0.0 0.0 0.9 0.8 2.9 1.4 1.2 0.6 1.4 0.2 3.1 0.0 3.4 0.8 1.0 0.2 1.7 1.7 0.8 0.8 0.7 0.1 0.5 0.7 0.4 0.9
0.0 0.0 0.0 0.0 0.0 0.0 0.0 0.0 0.0 0.0 6.2 0.0 0.0 0.0 0.0 0.0 0.0 0.0 0.8 0.0 0.0 1.6 0.0 2.9 2.1 2.7 0.1 1.1 0.9 2.3 2.5 0.0 2.7 2.0 4.2 1.7 0.9 0.7 0.4 0.4 0.7 1.0 1.1 0.7
0.0 0.0 0.0 0.0 0.0 0.0 0.0 0.0 0.0 0.0 0.3 7.2 0.6 0.0 0.0 0.0 0.0 0.0 0.0 0.0 0.0 0.0 0.0 1.4 0.5 1.7 0.0 0.8 2.1 2.2 1.7 2.2 6.2 6.4 4.5 2.0 1.3 1.5 1.3 1.3 0.9 0.3 1.5 1.3
0.0 0.0 0.0 0.0 0.0 0.0 0.0 0.0 0.0 0.0 0.0 3.2 1.6 0.0 0.0 0.0 0.0 0.0 0.0 0.0 0.0 0.0 1.6 1.8 1.9 0.0 0.1 0.1 2.2 2.4 1.1 3.6 6.8 11.9 9.4 5.7 5.0 2.8 1.8 1.8 2.1 1.2 0.5 0.0
0.0 0.0 0.0 0.0 0.0 0.0 0.0 25.6 0.0 0.0 0.0 5.1 4.2 0.0 0.0 0.0 0.0 0.0 0.0 0.0 0.0 0.0 0.4 1.6 0.0 0.0 0.1 5.2 6.1 2.4 1.3 1.4 2.8 5.5 7.9 7.6 4.8 3.5 2.3 1.5 0.7 0.0 0.0 0.0
0.0 0.0 0.0 0.0 0.0 0.0 0.0 5.8 0.0 0.0 0.0 6.0 8.1 1.6 0.0 0.0 0.0 0.0 0.0 0.0 0.0 0.0 0.0 0.4 0.4 0.0 0.1 5.6 7.8 3.6 2.6 2.6 3.1 3.2 3.6 2.7 1.7 1.1 0.5 0.0 0.0 0.0 0.0 0.0
0.0 0.0 0.0 0.0 0.0 0.0 0.0 0.0 0.0 0.0 0.0 0.7 7.4 7.5 3.0 0.0 0.0 2.0 0.0 0.0 0.0 0.0 0.1 0.8 0.2 0.9 0.6 5.0 0.4 0.0 0.4 0.5 1.2 1.3 0.4 0.9 0.5 0.0 0.0 0.0 0.0 0.0 0.0 0.3
0.0 0.0 0.0 0.0 0.0 1.2 0.0 0.0 0.0 0.0 0.0 4.7 3.1 6.7 12.7 0.0 0.0 0.0 1.8 0.0 6.3 0.0 3.0 1.6 1.0 2.4 7.2 4.4 0.6 0.0 0.0 0.0 0.0 0.0 0.1 0.0 0.2 0.0 0.0 0.0 0.0 0.4 2.7 1.8
0.0 0.0 0.3 39.2 3.0 0.0 0.0 0.0 5.3 5.4 2.6 1.8 2.7 0.9 4.7 0.0 0.6 1.8 1.2 1.1 3.0 4.4 1.7 0.0 3.6 6.6 4.5 1.3 0.3 0.0 0.0 0.0 0.0 0.0 0.0 0.0 0.3 0.4 0.3 1.2 1.9 2.7 2.3 1.0
0.0 14.1 15.8 0.0 0.0 0.0 2.1 19.4 11.5 6.5 3.9 0.6 0.6 0.0 7.6 3.5 7.5 2.3 0.2 4.7 3.2 4.7 2.0 4.3 5.6 3.9 3.1 1.7 0.9 0.2 0.0 0.0 0.0 0.0 0.0 0.1 0.4 1.3 3.0 2.0 0.1 0.0 0.8 1.0
0.0 0.0 0.0 0.0 6.6 10.1 17.1 13.7 7.3 3.1 3.5 1.1 1.5 1.6 1.1 8.5 1.8 6.8 8.8 9.2 6.3 4.6 3.5 4.8 6.6 4.5 0.7 0.1 0.2 0.2 0.1 0.0 0.1 0.3 0.4 0.4 1.3 0.6 1.5 1.3 1.4 1.5 1.4 2.0
0.0 3.2 9.9 17.3 22.3 23.3 15.5 9.4 5.2 3.1 3.8 1.3 1.5 2.4 1.4 3.5 5.0 14.6 8.1 7.9 13.2 3.9 10.0 8.3 5.5 3.0 1.3 1.4 0.3 0.2 0.2 0.2 0.2 0.4 0.3 0.4 0.7 0.7 0.6 1.0 1.4 1.6 2.8 3.9
6.9 19.8 20.6 20.7 16.0 10.5 9.1 4.7 2.9 2.8 2.3 1.4 3.4 1.6 2.3 2.5 8.9 14.4 14.0 14.4 11.3 14.6 8.5 6.2 5.9 6.5 6.1 4.0 3.1 2.1 3.4 2.2 2.2 2.3 2.4 2.6 3.9 3.7 5.4 6.2 7.2 6.7 8.7 11.2
12.4 12.1 12.2 10.4 11.6 9.3 7.5 6.2 4.3 2.6 2.8 2.1 3.5 3.4 4.6 8.0 12.3 10.0 8.6 8.3 7.9 6.3 7.0 6.7 6.5 6.9 5.5 4.5 4.9 5.2 5.6 5.4 5.9 6.1 6.1 7.1 7.3 6.6 8.4 9.4 9.3 7.8 7.8 7.9
6.5 6.4 9.1 8.1 6.5 7.9 6.4 6.3 7.0 4.1 5.4 4.7 5.3 6.6 7.5 8.1 6.7 4.0 5.2 4.4 6.1 7.3 5.8 4.4 4.5 5.0 5.5 6.0 6.0 6.8 7.0 6.5 6.2 6.3 5.8 6.0 6.2 5.6 6.3 6.7 6.4 6.6 5.4 5.4
4.7 8.5 8.7 8.2 6.9 8.1 8.0 7.0 5.5 3.8 3.6 6.1 5.0 4.2 4.8 3.0 2.8 4.8 5.1 6.5 6.7 5.4 6.3 6.8 6.3 6.5 7.4 7.3 7.8 8.1 7.7 6.7 6.3 6.0 5.8 6.0 5.9 4.4 2.9 3.9 5.6 4.4 4.2 3.7

GFSNW_prec_snow_138.txt.gz
Snowfall_Accumulation
0.0 0.0 0.0 0.0 0.0 0.0 0.0 0.0 16.3 0.0 0.0 12.1 7.9 4.2 0.1 0.0 0.2 0.0 1.6 2.4 4.2 6.6 4.8 5.2 6.0 3.0 3.4 0.0 0.0 0.0 0.0 7.3 6.5 1.5 0.0 0.0 0.0 0.1 0.1 6.1 3.2 3.5 9.6 15.8
0.0 0.0 0.0 0.0 0.0 0.0 0.0 5.0 3.9 0.0 0.0 8.3 5.0 1.0 0.1 0.0 0.0 0.0 1.4 2.0 4.4 6.1 7.8 9.2 11.0 3.5 0.0 0.0 0.0 0.0 0.0 5.9 2.0 3.1 0.0 0.0 0.3 0.0 0.0 0.6 2.3 8.2 13.2 14.5
0.0 0.0 0.0 0.0 0.0 0.0 0.0 9.7 23.3 0.0 0.0 2.3 1.4 1.5 0.4 0.1 0.0 0.0 0.1 2.9 5.7 6.2 7.4 6.9 9.2 3.4 0.0 0.0 0.0 0.0 0.0 1.2 2.8 6.4 7.9 4.2 2.8 1.1 0.0 2.4 8.3 7.7 10.4 9.6
0.0 0.0 0.0 0.0 0.0 0.0 0.0 15.5 14.2 0.3 13.9 7.9 2.7 1.5 2.0 1.1 1.2 0.2 1.0 4.7 3.9 4.5 6.6 4.5 5.1 4.6 0.1 0.0 0.0 0.0 0.0 2.5 6.5 3.6 4.7 3.1 6.3 6.2 7.5 6.5 4.3 6.8 8.9 4.6
0.0 0.0 0.0 0.0 0.0 0.0 0.0 37.9 6.5 0.0 1.2 0.8 3.8 3.3 1.5 0.4 1.1 3.7 2.5 0.7 0.5 1.0 1.1 2.5 2.7 3.1 1.8 1.6 0.0 0.0 0.0 2.3 6.8 13.0 6.5 2.6 7.8 9.4 7.0 3.7 3.3 4.1 2.3 3.6
0.0 0.0 0.0 0.0 0.0 0.0 0.0 0.0 0.0 0.8 2.6 2.0 5.4 6.1 2.3 1.1 1.0 0.5 0.3 0.0 0.1 0.1 0.0 0.0 0.0 0.0 0.0 0.0 0.2 0.3 0.0 0.6 0.9 5.1 4.2 1.2 4.2 7.9 4.6 2.4 1.7 1.2 1.3 1.8
0.0 0.0 0.0 0.0 0.0 0.0 0.0 0.0 0.0 5.8 8.9 2.9 1.2 0.7 0.0 0.1 0.0 0.0 0.0 0.0 0.1 0.0 0.0 0.0 0.0 0.0 0.0 0.0 0.0 0.0 0.0 0.3 0.4 2.5 1.9 6.1 8.3 3.5 2.2 1.2 1.4 0.9 0.4 1.4
0.0 0.0 0.0 0.0 0.0 0.0 0.0 0.0 0.0 1.1 5.1 1.3 0.9 0.5 0.4 0.0 0.0 0.0 0.0 0.0 0.0 0.0 0.0 0.6 0.2 0.2 0.1 0.0 0.0 0.0 0.0 0.1 3.3 2.7 1.6 3.5 1.9 0.5 0.6 1.1 1.5 0.9 0.9 1.0
0.0 0.0 0.0 0.0 0.0 0.0 0.0 0.0 0.0 0.0 4.7 1.8 0.0 0.0 0.0 0.4 1.2 0.5 0.0 0.0 0.0 0.0 1.8 1.6 1.3 1.0 0.4 0.5 0.2 0.0 0.0 0.1 1.8 2.9 2.5 3.3 0.6 0.0 0.0 0.0 1.6 0.5 0.4 0.3
0.0 0.0 0.0 0.0 0.0 0.0 0.0 0.0 0.0 0.1 9.6 0.0 0.0 0.0 1.2 0.0 0.3 2.8 0.0 0.3 0.0 0.0 2.4 2.3 0.8 0.9 0.0 1.8 2.1 0.8 1.5 0.8 2.4 2.8 2.9 0.1 0.0 0.2 0.1 1.4 2.7 0.8 0.1 0.0
0.0 0.0 0.0 0.0 0.0 0.0 0.0 0.0 0.0 0.0 9.7 0.0 0.0 0.0 0.0 0.0 0.4 2.5 0.0 4.1 3.6 2.0 2.1 1.3 0.8 1.1 0.6 1.2 0.2 0.9 0.5 2.3 1.1 3.5 3.6 2.1 0.0 0.1 0.0 1.3 0.9 0.6 0.5 0.1
0.0 0.0 0.0 0.0 0.0 0.0 0.0 0.0 0.0 0.0 0.2 0.0 0.0 0.0 0.0 0.0 0.0 0.0 0.0 0.0 0.9 0.8 2.9 1.4 1.2 0.6 1.4 0.2 3.1 0.0 3.4 0.8 1.0 0.2 1.7 1.7 0.8 0.8 0.7 0.1 0.5 0.7 0.4 0.9
0.0 0.0 0.0 0.0 0.0 0.0 0.0 0.0 0.0 0.0 6.2 0.0 0.0 0.0 0.0 0.0 0.0 0.0 0.8 0.0 0.0 1.6 0.0 2.9 2.1 2.7 0.1 1.1 0.9 2.3 2.5 0.0 2.7 2.0 4.2 1.7 0.9 0.7 0.4 0.4 0.7 1.0 1.1 0.7
0.0 0.0 0.0 0.0 0.0 0.0 0.0 0.0 0.0 0.0 0.3 8.1 1.5 0.0 0.0 0.0 0.0 0.0 0.0 0.0 0.0 0.0 0.0 1.4 0.5 1.7 0.0 0.8 2.1 2.2 1.7 2.2 6.2 6.4 4.5 2.0 1.3 1.5 1.3 1.3 0.9 0.3 1.5 1.3
0.0 0.0 0.0 0.0 0.0 0.0 0.0 0.0 0.0 0.0 0.0 3.2 1.8 0.0 0.0 0.0 0.0 0.0 0.0 0.0 0.0 0.0 1.6 1.8 1.9 0.0 0.1 0.1 2.2 2.4 1.1 3.6 6.8 11.9 9.4 5.7 5.0 2.8 1.8 1.8 2.1 1.2 0.5 0.0
0.0 0.0 0.0 0.0 0.0 0.0 0.0 25.6 0.0 0.0 0.0 5.1 4.2 0.0 0.0 0.0 0.0 0.0 0.0 0.0 0.0 0.0 0.4 1.6 0.0 0.0 0.1 5.2 6.1 2.4 1.3 1.4 2.8 5.5 7.9 7.6 4.8 3.5 2.3 1.5 0.7 0.0 0.0 0.0
0.0 0.0 0.0 0.0 0.0 0.0 0.0 5.8 0.0 0.0 0.0 6.0 8.1 1.6 0.0 0.0 0.0 0.0 0.0 0.0 0.0 0.0 0.0 0.4 0.4 0.0 0.1 5.6 7.8 3.6 2.6 2.6 3.1 3.2 3.6 2.7 1.7 1.1 0.5 0.0 0.0 0.0 0.0 0.0
0.0 0.0 0.0 0.0 0.0 0.0 0.0 0.0 0.0 0.0 0.0 0.7 7.4 7.5 3.0 0.0 0.0 2.0 0.0 0.0 0.0 0.0 0.1 0.8 0.2 0.9 0.6 5.0 0.4 0.0 0.4 0.5 1.2 1.3 0.4 0.9 0.5 0.0 0.0 0.0 0.0 0.0 0.0 0.3
0.0 0.0 0.0 0.0 0.0 1.2 0.0 0.0 0.0 0.0 0.0 4.7 3.1 6.7 12.7 0.0 0.0 0.0 1.8 0.0 6.3 0.0 3.0 1.6 1.0 2.4 7.2 4.4 0.6 0.0 0.0 0.0 0.0 0.0 0.1 0.0 0.2 0.0 0.0 0.0 0.0 0.4 2.7 1.8
0.0 0.0 0.3 39.2 3.0 0.0 0.0 0.0 5.3 5.4 2.6 1.8 2.7 0.9 4.7 0.0 0.6 1.8 1.2 1.1 3.0 4.4 1.7 0.0 3.6 6.6 4.5 1.3 0.3 0.0 0.0 0.0 0.0 0.0 0.0 0.0 0.3 0.4 0.3 1.2 1.9 2.7 2.3 1.0
0.0 14.1 15.8 0.0 0.0 0.0 2.1 19.4 11.5 6.5 3.9 0.6 0.6 0.0 7.6 3.5 7.5 2.3 0.2 4.7 3.2 4.7 2.0 4.3 5.6 3.9 3.1 1.7 0.9 0.2 0.0 0.0 0.0 0.0 0.0 0.1 0.4 1.3 3.0 2.0 0.1 0.0 0.8 1.0
0.0 0.0 0.0 0.0 6.6 10.1 17.1 13.7 7.3 3.1 3.5 1.1 1.5 1.6 1.1 8.5 1.8 6.8 8.8 9.2 6.3 4.6 3.5 4.8 6.6 4.5 0.7 0.1 0.2 0.2 0.1 0.0 0.1 0.3 0.4 0.4 1.3 0.6 1.5 1.3 1.4 1.5 1.4 2.0
0.0 3.2 9.9 17.3 22.3 23.3 15.5 9.4 5.2 3.1 3.8 1.3 1.5 2.4 1.4 3.5 5.0 14.6 8.1 7.9 13.2 3.9 10.0 8.3 5.5 3.0 1.3 1.4 0.3 0.2 0.2 0.2 0.2 0.4 0.3 0.4 0.7 0.7 0.6 1.0 1.4 1.6 2.8 3.9
6.9 19.8 20.6 20.7 16.0 10.5 9.1 4.7 2.9 2.8 2.3 1.4 3.4 1.6 2.3 2.5 8.9 14.4 14.0 14.4 11.3 14.6 8.5 6.2 5.9 6.5 6.1 4.0 3.1 2.1 3.4 2.2 2.2 2.3 2.4 2.6 3.9 3.7 5.4 6.2 7.2 6.7 8.7 11.2
12.4 12.1 12.2 10.4 11.6 9.3 7.5 6.2 4.3 2.6 2.8 2.1 3.5 3.4 4.6 8.0 12.3 10.0 8.6 8.3 7.9 6.3 7.0 6.7 6.5 6.9 5.5 4.5 4.9 5.2 5.6 5.4 5.9 6.1 6.1 7.1 7.3 6.6 8.4 9.4 9.3 7.8 7.8 7.9
6.5 6.4 9.1 8.1 6.5 7.9 6.4 6.3 7.0 4.1 5.4 4.7 5.3 6.6 7.5 8.1 6.7 4.0 5.2 4.4 6.1 7.3 5.8 4.4 4.5 5.0 5.5 6.0 6.0 6.8 7.0 6.5 6.2 6.3 5.8 6.0 6.2 5.6 6.3 6.7 6.4 6.6 5.4 5.4
4.7 8.5 8.7 8.2 6.9 8.1 8.0 7.0 5.5 3.8 3.6 6.1 5.0 4.2 4.8 3.0 2.8 4.8 5.1 6.5 6.7 5.4 6.3 6.8 6.3 6.5 7.4 7.3 7.8 8.1 7.7 6.7 6.3 6.0 5.8 6.0 5.9 4.4 2.9 3.9 5.6 4.4 4.2 3.7